Time,TemperatureF,DewpointF,PressureIn,WindDirection,WindDirectionDegrees,WindSpeedMPH,WindSpeedGustMPH,Humidity,HourlyPrecipIn,Conditions,Clouds,dailyrainin,SoftwareType,DateUTC
2013-06-18 00:01:00,63.0,53.0,-100.00,East,95,5.0,11.0,69,-99.99,,,-99.99,,2013-06-18 05:01:00,
2013-06-18 00:22:00,63.0,53.0,-100.00,East,95,5.0,11.0,69,-99.99,,,-99.99,,2013-06-18 05:22:00,
2013-06-18 00:34:00,63.0,53.0,-100.00,East,95,5.0,11.0,69,-99.99,,,-99.99,,2013-06-18 05:34:00,
2013-06-18 00:43:00,63.0,53.0,-100.00,East,95,5.0,11.0,69,-99.99,,,-99.99,,2013-06-18 05:43:00,
2013-06-18 00:53:00,63.0,53.0,-100.00,East,95,5.0,11.0,69,-99.99,,,-99.99,,2013-06-18 05:53:00,
2013-06-18 01:01:00,61.0,53.0,-100.00,ENE,75,3.0,6.0,77,-99.99,,,-99.99,,2013-06-18 06:01:00,
2013-06-18 01:24:00,61.0,53.0,-100.00,ENE,75,3.0,6.0,77,-99.99,,,-99.99,,2013-06-18 06:24:00,
2013-06-18 01:33:00,61.0,53.0,-100.00,ENE,75,3.0,6.0,77,-99.99,,,-99.99,,2013-06-18 06:33:00,
2013-06-18 01:43:00,61.0,53.0,-100.00,ENE,75,3.0,6.0,77,-99.99,,,-99.99,,2013-06-18 06:43:00,
2013-06-18 01:53:00,61.0,53.0,-100.00,ENE,75,3.0,6.0,77,-99.99,,,-99.99,,2013-06-18 06:53:00,
2013-06-18 02:22:00,60.0,54.0,-100.00,NE,35,2.0,6.0,82,-99.99,,,-99.99,,2013-06-18 07:22:00,
2013-06-18 02:33:00,60.0,54.0,-100.00,NE,35,2.0,6.0,82,-99.99,,,-99.99,,2013-06-18 07:33:00,
2013-06-18 02:43:00,60.0,54.0,-100.00,NE,35,2.0,6.0,82,-99.99,,,-99.99,,2013-06-18 07:43:00,
2013-06-18 02:53:00,60.0,54.0,-100.00,NE,35,2.0,6.0,82,-99.99,,,-99.99,,2013-06-18 07:53:00,
2013-06-18 03:01:00,60.0,54.0,-100.00,NE,35,2.0,6.0,82,-99.99,,,-99.99,,2013-06-18 08:01:00,
2013-06-18 03:02:00,58.0,50.0,-100.00,East,80,1.0,6.0,75,-99.99,,,-99.99,,2013-06-18 08:02:00,
2013-06-18 03:23:00,58.0,50.0,-100.00,East,80,1.0,6.0,75,-99.99,,,-99.99,,2013-06-18 08:23:00,
2013-06-18 03:33:00,58.0,50.0,-100.00,East,80,1.0,6.0,75,-99.99,,,-99.99,,2013-06-18 08:33:00,
2013-06-18 03:43:00,58.0,50.0,-100.00,East,80,1.0,6.0,75,-99.99,,,-99.99,,2013-06-18 08:43:00,
2013-06-18 03:52:00,58.0,50.0,-100.00,East,80,1.0,6.0,75,-99.99,,,-99.99,,2013-06-18 08:52:00,
2013-06-18 04:01:00,56.0,49.0,-100.00,North,355,4.0,7.0,78,-99.99,,,-99.99,,2013-06-18 09:01:00,
2013-06-18 04:22:00,56.0,49.0,-100.00,North,355,4.0,7.0,78,-99.99,,,-99.99,,2013-06-18 09:22:00,
2013-06-18 04:34:00,56.0,49.0,-100.00,North,355,4.0,7.0,78,-99.99,,,-99.99,,2013-06-18 09:34:00,
2013-06-18 04:43:00,56.0,49.0,-100.00,North,355,4.0,7.0,78,-99.99,,,-99.99,,2013-06-18 09:43:00,
2013-06-18 04:53:00,56.0,49.0,-100.00,North,355,4.0,7.0,78,-99.99,,,-99.99,,2013-06-18 09:53:00,
2013-06-18 05:01:00,55.0,49.0,-100.00,North,0,2.0,6.0,79,-99.99,,,-99.99,,2013-06-18 10:01:00,
2013-06-18 05:22:00,55.0,49.0,-100.00,North,0,2.0,6.0,79,-99.99,,,-99.99,,2013-06-18 10:22:00,
2013-06-18 05:33:00,55.0,49.0,-100.00,North,0,2.0,6.0,79,-99.99,,,-99.99,,2013-06-18 10:33:00,
2013-06-18 05:43:00,55.0,49.0,-100.00,North,0,2.0,6.0,79,-99.99,,,-99.99,,2013-06-18 10:43:00,
2013-06-18 05:53:00,55.0,49.0,-100.00,North,0,2.0,6.0,79,-99.99,,,-99.99,,2013-06-18 10:53:00,
2013-06-18 06:22:00,56.0,49.0,-100.00,NE,35,2.0,12.0,79,-99.99,,,-99.99,,2013-06-18 11:22:00,
2013-06-18 06:32:00,56.0,49.0,-100.00,NE,35,2.0,12.0,79,-99.99,,,-99.99,,2013-06-18 11:32:00,
2013-06-18 06:43:00,56.0,49.0,-100.00,NE,35,2.0,12.0,79,-99.99,,,-99.99,,2013-06-18 11:43:00,
2013-06-18 06:52:00,56.0,49.0,-100.00,NE,35,2.0,12.0,79,-99.99,,,-99.99,,2013-06-18 11:52:00,
2013-06-18 07:01:00,56.0,49.0,-100.00,NE,35,2.0,12.0,79,-99.99,,,-99.99,,2013-06-18 12:01:00,
2013-06-18 07:02:00,56.0,49.0,-100.00,North,0,6.0,10.0,75,-99.99,,,-99.99,,2013-06-18 12:02:00,
2013-06-18 07:22:00,56.0,49.0,-100.00,North,0,6.0,10.0,75,-99.99,,,-99.99,,2013-06-18 12:22:00,
2013-06-18 07:33:00,56.0,49.0,-100.00,North,0,6.0,10.0,75,-99.99,,,-99.99,,2013-06-18 12:33:00,
2013-06-18 07:43:00,56.0,49.0,-100.00,North,0,6.0,10.0,75,-99.99,,,-99.99,,2013-06-18 12:43:00,
2013-06-18 07:52:00,56.0,49.0,-100.00,North,0,6.0,10.0,75,-99.99,,,-99.99,,2013-06-18 12:52:00,
2013-06-18 08:02:00,58.0,49.0,-100.00,ENE,60,4.0,13.0,72,-99.99,,,-99.99,,2013-06-18 13:02:00,
2013-06-18 08:22:00,58.0,49.0,-100.00,ENE,60,4.0,13.0,72,-99.99,,,-99.99,,2013-06-18 13:22:00,
2013-06-18 08:34:00,58.0,49.0,-100.00,ENE,60,4.0,13.0,72,-99.99,,,-99.99,,2013-06-18 13:34:00,
2013-06-18 08:43:00,58.0,49.0,-100.00,ENE,60,4.0,13.0,72,-99.99,,,-99.99,,2013-06-18 13:43:00,
2013-06-18 08:53:00,58.0,49.0,-100.00,ENE,60,4.0,13.0,72,-99.99,,,-99.99,,2013-06-18 13:53:00,
2013-06-18 09:22:00,62.0,50.0,-100.00,NNE,25,4.0,14.0,64,-99.99,,,-99.99,,2013-06-18 14:22:00,
2013-06-18 09:33:00,62.0,50.0,-100.00,NNE,25,4.0,14.0,64,-99.99,,,-99.99,,2013-06-18 14:33:00,
2013-06-18 09:43:00,62.0,50.0,-100.00,NNE,25,4.0,14.0,64,-99.99,,,-99.99,,2013-06-18 14:43:00,
2013-06-18 09:53:00,62.0,50.0,-100.00,NNE,25,4.0,14.0,64,-99.99,,,-99.99,,2013-06-18 14:53:00,
2013-06-18 10:02:00,62.0,50.0,-100.00,NNE,25,4.0,14.0,64,-99.99,,,-99.99,,2013-06-18 15:02:00,
2013-06-18 10:22:00,66.0,49.0,-100.00,NNE,20,6.0,12.0,54,-99.99,,,-99.99,,2013-06-18 15:22:00,
2013-06-18 10:33:00,66.0,49.0,-100.00,NNE,20,6.0,12.0,54,-99.99,,,-99.99,,2013-06-18 15:33:00,
2013-06-18 10:43:00,66.0,49.0,-100.00,NNE,20,6.0,12.0,54,-99.99,,,-99.99,,2013-06-18 15:43:00,
2013-06-18 10:53:00,66.0,49.0,-100.00,NNE,20,6.0,12.0,54,-99.99,,,-99.99,,2013-06-18 15:53:00,
2013-06-18 11:01:00,66.0,49.0,-100.00,NNE,20,6.0,12.0,54,-99.99,,,-99.99,,2013-06-18 16:01:00,
2013-06-18 11:23:00,69.0,50.0,-100.00,NE,40,6.0,13.0,50,-99.99,,,-99.99,,2013-06-18 16:23:00,
2013-06-18 11:33:00,69.0,50.0,-100.00,NE,40,6.0,13.0,50,-99.99,,,-99.99,,2013-06-18 16:33:00,
2013-06-18 11:43:00,69.0,50.0,-100.00,NE,40,6.0,13.0,50,-99.99,,,-99.99,,2013-06-18 16:43:00,
2013-06-18 13:43:00,72.0,51.0,-100.00,NE,45,6.0,12.0,47,-99.99,,,-99.99,,2013-06-18 18:43:00,
2013-06-18 13:53:00,72.0,51.0,-100.00,NE,45,6.0,12.0,47,-99.99,,,-99.99,,2013-06-18 18:53:00,
2013-06-18 14:02:00,72.0,51.0,-100.00,NE,45,6.0,12.0,47,-99.99,,,-99.99,,2013-06-18 19:02:00,
2013-06-18 14:22:00,72.0,50.0,-100.00,North,0,6.0,12.0,46,-99.99,,,-99.99,,2013-06-18 19:22:00,
2013-06-18 14:33:00,72.0,50.0,-100.00,North,0,6.0,12.0,46,-99.99,,,-99.99,,2013-06-18 19:33:00,
2013-06-18 14:43:00,72.0,50.0,-100.00,North,0,6.0,12.0,46,-99.99,,,-99.99,,2013-06-18 19:43:00,
2013-06-18 14:53:00,72.0,50.0,-100.00,North,0,6.0,12.0,46,-99.99,,,-99.99,,2013-06-18 19:53:00,
2013-06-18 15:02:00,72.0,50.0,-100.00,North,0,6.0,12.0,46,-99.99,,,-99.99,,2013-06-18 20:02:00,
2013-06-18 15:23:00,74.0,51.0,-100.00,East,85,6.0,12.0,45,-99.99,,,-99.99,,2013-06-18 20:23:00,
2013-06-18 15:33:00,74.0,51.0,-100.00,East,85,6.0,12.0,45,-99.99,,,-99.99,,2013-06-18 20:33:00,
2013-06-18 15:43:00,74.0,51.0,-100.00,East,85,6.0,12.0,45,-99.99,,,-99.99,,2013-06-18 20:43:00,
2013-06-18 15:52:00,74.0,51.0,-100.00,East,85,6.0,12.0,45,-99.99,,,-99.99,,2013-06-18 20:52:00,
2013-06-18 16:01:00,74.0,51.0,-100.00,East,85,6.0,12.0,45,-99.99,,,-99.99,,2013-06-18 21:01:00,
2013-06-18 19:22:00,71.0,48.0,-100.00,East,80,7.0,13.0,43,-99.99,,,-99.99,,2013-06-19 00:22:00,
2013-06-18 19:33:00,71.0,48.0,-100.00,East,80,7.0,13.0,43,-99.99,,,-99.99,,2013-06-19 00:33:00,
2013-06-18 19:43:00,71.0,48.0,-100.00,East,80,7.0,13.0,43,-99.99,,,-99.99,,2013-06-19 00:43:00,
2013-06-18 19:53:00,71.0,48.0,-100.00,East,80,7.0,13.0,43,-99.99,,,-99.99,,2013-06-19 00:53:00,
2013-06-18 20:01:00,71.0,48.0,-100.00,East,80,7.0,13.0,43,-99.99,,,-99.99,,2013-06-19 01:01:00,
2013-06-18 20:22:00,69.0,44.0,-100.00,NE,55,4.0,8.0,41,-99.99,,,-99.99,,2013-06-19 01:22:00,
2013-06-18 20:32:00,69.0,44.0,-100.00,NE,55,4.0,8.0,41,-99.99,,,-99.99,,2013-06-19 01:32:00,
2013-06-18 20:43:00,69.0,44.0,-100.00,NE,55,4.0,8.0,41,-99.99,,,-99.99,,2013-06-19 01:43:00,
2013-06-18 20:53:00,69.0,44.0,-100.00,NE,55,4.0,8.0,41,-99.99,,,-99.99,,2013-06-19 01:53:00,
2013-06-18 21:01:00,69.0,44.0,-100.00,NE,55,4.0,8.0,41,-99.99,,,-99.99,,2013-06-19 02:01:00,
2013-06-18 21:32:00,61.0,43.0,-100.00,ESE,110,0.0,2.0,53,-99.99,,,-99.99,,2013-06-19 02:32:00,
2013-06-18 21:42:00,61.0,43.0,-100.00,ESE,110,0.0,2.0,53,-99.99,,,-99.99,,2013-06-19 02:42:00,
2013-06-18 21:52:00,61.0,43.0,-100.00,ESE,110,0.0,2.0,53,-99.99,,,-99.99,,2013-06-19 02:52:00,
2013-06-18 22:01:00,61.0,43.0,-100.00,ESE,110,0.0,2.0,53,-99.99,,,-99.99,,2013-06-19 03:01:00,
2013-06-18 22:43:00,56.0,46.0,-100.00,NE,55,1.0,2.0,69,-99.99,,,-99.99,,2013-06-19 03:43:00,
2013-06-18 22:52:00,56.0,46.0,-100.00,NE,55,1.0,2.0,69,-99.99,,,-99.99,,2013-06-19 03:52:00,
2013-06-18 23:01:00,56.0,46.0,-100.00,NE,55,1.0,2.0,69,-99.99,,,-99.99,,2013-06-19 04:01:00,
2013-06-18 23:43:00,53.0,46.0,-100.00,ESE,105,0.0,1.0,76,-99.99,,,-99.99,,2013-06-19 04:43:00,
2013-06-18 23:53:00,53.0,46.0,-100.00,ESE,105,0.0,1.0,76,-99.99,,,-99.99,,2013-06-19 04:53:00,